Wind_Speed
43 42 40 38 38 37 37 38 37 37 36 36 36 34 34 34 33 32 32 32 32 32 30 29 26 23 22 18 15 15 15 15 13 12 10 8 9 9 7 7 10 12 11 13 13 11 14
49 50 46 44 43 41 40 40 40 40 40 39 37 36 36 35 35 34 34 34 34 34 30 28 27 25 24 18 16 14 13 12 10 11 9 9 8 9 12 11 12 13 14 12 12 13 15
45 47 46 51 45 45 39 43 41 42 40 39 38 37 37 35 36 35 36 36 35 33 27 25 23 19 19 13 16 15 15 14 13 12 11 11 11 11 12 12 14 13 15 12 13 13 8
48 47 47 41 49 48 46 41 37 38 40 39 38 38 38 33 33 32 33 35 33 31 27 25 20 17 17 18 17 14 14 15 16 15 13 16 14 13 15 16 16 17 16 10 5 6 7
52 54 52 50 46 46 42 45 44 40 40 37 36 35 30 33 31 25 31 32 31 28 27 21 21 21 21 18 17 16 17 19 18 16 15 18 17 17 19 17 17 15 10 11 9 11 12
52 49 48 51 53 55 54 50 48 45 40 44 38 42 38 36 32 32 30 24 27 26 22 25 26 26 23 19 13 10 10 13 18 17 22 23 18 17 21 15 14 8 10 13 11 10 14
48 48 48 46 46 46 47 46 41 39 39 38 35 35 36 34 33 30 35 38 34 35 35 37 27 28 17 15 11 17 15 20 22 25 23 22 19 20 11 12 15 18 18 18 15 9 21
47 47 46 46 45 45 44 42 40 38 37 36 38 34 34 34 33 35 42 42 41 41 46 42 39 39 33 30 24 24 26 26 25 26 24 24 23 16 16 17 15 16 17 17 16 11 19
45 44 44 44 44 44 43 42 40 39 38 37 35 33 34 33 32 35 35 36 35 34 36 37 33 35 30 33 34 29 32 29 30 29 27 27 18 11 9 13 15 17 17 15 19 18 19
47 46 44 43 43 43 41 40 40 38 38 36 34 34 35 32 34 33 30 28 28 26 22 34 31 31 30 33 38 26 31 32 36 32 25 20 16 20 21 21 21 21 17 17 15 15 11
48 47 46 45 43 42 40 39 39 38 36 36 35 35 32 32 33 29 24 25 20 15 5 8 15 18 18 22 25 19 25 29 34 31 23 11 10 9 8 9 9 12 9 9 13 16 20
36 43 47 47 45 44 41 38 38 37 35 34 33 32 31 33 32 26 24 21 19 11 9 7 9 13 15 18 19 16 17 22 18 23 22 25 21 14 12 9 8 12 15 19 20 20 10
38 37 38 41 46 46 45 40 38 37 34 32 31 31 30 28 27 24 24 22 16 11 10 8 12 14 14 16 19 16 17 18 14 14 19 23 25 24 22 22 20 21 18 4 4 2 6
46 40 39 36 36 43 46 44 41 40 37 34 32 30 29 26 23 23 26 33 12 15 27 5 10 12 17 17 22 17 16 18 18 18 13 7 4 4 9 13 10 9 12 8 5 3 6
52 49 43 40 37 36 40 43 41 41 40 38 35 33 31 28 24 22 31 35 23 29 13 24 6 14 18 20 14 21 20 20 20 18 12 6 4 8 8 7 7 5 8 10 14 18 6
53 54 52 47 39 38 37 37 41 40 40 39 39 37 36 31 26 32 37 33 35 35 13 16 26 13 16 22 21 14 13 10 23 24 16 10 8 12 11 11 13 15 13 6 5 2 5
57 52 57 53 49 39 38 36 35 40 39 38 39 39 41 38 37 34 41 44 43 37 32 14 20 16 14 14 19 20 13 17 14 14 16 20 15 9 13 13 15 13 17 14 12 10 3
53 50 54 56 53 49 44 35 35 36 39 36 36 41 46 42 43 45 44 49 44 40 35 26 22 20 13 13 11 15 25 21 11 21 18 20 10 17 20 19 19 20 21 20 13 10 20
50 51 50 51 54 49 47 42 36 35 39 39 37 42 41 42 37 47 48 47 50 45 36 31 32 23 17 18 10 12 15 17 23 21 16 21 16 12 11 14 18 22 25 25 25 26 35
41 50 54 48 42 47 47 40 41 37 37 41 38 38 38 36 51 46 49 55 49 45 29 34 33 31 33 29 29 16 16 11 13 20 24 24 23 24 20 15 13 15 20 19 19 20 33
37 39 49 50 45 44 47 48 40 43 38 40 48 30 36 38 51 55 45 45 50 42 43 39 33 26 21 26 27 24 22 18 19 19 23 25 21 21 23 22 25 26 27 25 29 40 33
38 40 42 43 46 47 52 54 45 43 40 37 52 35 43 40 44 51 45 51 49 46 43 37 27 26 27 31 26 23 21 21 23 19 19 19 21 23 25 25 24 29 29 31 39 40 44
40 42 42 42 42 43 55 58 45 45 46 43 48 55 32 46 40 44 56 55 53 48 39 40 28 28 27 23 21 22 22 20 22 21 20 24 27 16 17 19 17 29 29 26 25 23 21
43 43 45 45 42 40 49 55 52 56 51 43 46 48 45 35 43 48 49 48 47 43 45 24 26 27 26 27 27 26 24 25 25 19 19 20 17 17 15 12 6 18 14 16 20 20 22
45 45 45 46 45 43 50 55 56 53 52 43 42 46 52 31 37 41 43 40 41 42 35 35 34 12 21 28 24 17 20 25 26 24 22 20 21 15 7 11 25 33 22 17 15 21 20
41 43 44 47 45 43 50 56 43 50 51 40 42 43 42 51 31 29 36 36 36 37 40 45 32 22 22 19 16 15 10 9 9 10 25 25 23 19 13 5 5 13 11 11 14 23 11
40 41 43 44 44 43 47 51 42 41 50 49 41 42 46 43 40 31 30 31 32 35 36 31 27 28 23 24 26 20 16 11 11 13 14 27 26 26 24 14 16 22 18 20 14 20 15
43 43 42 42 40 41 44 44 41 40 40 39 39 39 42 44 23 24 31 31 31 30 32 27 22 25 23 25 22 20 17 20 18 17 18 19 14 18 19 12 13 14 9 12 13 12 13
47 44 43 42 41 41 41 39 39 39 35 35 38 41 40 47 40 28 13 29 24 21 18 22 23 23 21 21 26 17 17 15 24 21 24 21 29 21 20 20 18 18 23 19 15 15 18
Wind_Direction
247 245 246 247 247 247 248 248 250 251 251 252 254 255 258 262 265 269 272 275 278 281 283 285 281 277 277 280 274 269 263 266 284 291 288 273 275 283 281 269 264 263 257 266 276 283 283
253 249 245 247 247 248 249 249 248 250 251 252 254 257 259 262 265 267 271 273 277 281 283 285 284 273 271 267 268 265 254 257 282 281 271 275 273 273 278 276 269 274 276 275 284 284 279
241 253 245 248 247 244 249 252 252 253 252 254 257 258 260 264 264 270 268 272 271 278 283 293 283 265 256 259 267 265 244 250 265 260 271 280 282 279 279 277 271 272 274 274 280 267 264
236 244 249 247 248 252 253 248 246 251 255 255 256 259 260 262 264 267 266 268 270 271 276 273 264 257 261 266 263 252 243 249 250 244 268 284 288 279 268 269 268 278 287 295 200 223 253
248 245 248 251 243 241 241 236 245 250 251 249 252 253 258 258 256 267 261 265 255 250 263 259 239 261 276 268 253 243 251 240 236 237 278 296 286 276 273 267 272 272 267 270 257 252 231
253 254 254 255 253 254 259 251 256 260 257 254 264 258 268 259 264 261 252 245 243 250 254 261 269 270 265 246 233 233 233 255 236 243 284 294 283 274 271 271 267 266 264 263 256 244 255
252 251 250 251 252 251 252 256 256 258 257 262 260 262 258 249 247 243 246 248 253 264 251 266 261 268 254 238 205 199 237 243 243 256 277 286 272 274 286 263 252 259 268 275 279 273 286
250 249 250 249 249 249 248 249 250 250 246 247 248 243 246 247 246 238 238 244 254 261 265 264 260 248 250 252 236 242 255 259 260 265 271 276 273 273 252 256 263 262 265 274 287 279 293
249 248 247 248 249 249 248 247 245 243 243 241 242 241 242 242 243 242 239 246 250 257 261 258 257 258 249 251 255 254 257 260 262 266 267 275 268 268 265 247 258 257 261 282 294 301 295
247 248 247 245 245 245 245 244 243 240 240 240 239 239 239 238 238 240 240 244 246 246 268 270 263 267 254 253 255 252 251 250 255 261 266 273 275 261 257 255 259 269 264 289 294 296 290
248 246 245 244 243 246 243 242 242 240 237 236 234 235 235 236 241 241 242 238 235 241 286 257 230 237 232 233 241 238 240 238 244 247 247 252 271 253 249 271 261 274 283 306 292 283 288
248 246 246 243 239 241 242 239 240 238 236 235 233 233 230 234 236 232 226 215 205 190 245 234 215 224 219 214 221 222 226 218 227 231 244 246 248 246 247 247 253 269 285 293 288 281 269
237 240 243 245 241 238 238 235 237 238 235 233 233 232 230 229 234 225 217 194 172 211 236 239 226 215 217 217 211 210 211 208 203 212 245 257 258 260 255 256 256 265 270 291 288 230 242
228 229 236 238 241 240 238 230 230 233 232 230 228 226 227 223 218 210 196 179 203 233 221 207 220 213 225 217 214 212 210 221 231 238 252 265 268 206 246 239 243 256 238 204 234 219 263
237 231 230 233 234 235 238 233 226 224 225 225 224 222 222 216 205 206 191 186 219 230 243 219 221 212 219 222 224 228 234 243 246 250 235 225 237 202 203 214 229 231 243 274 258 274 287
241 235 229 232 229 231 232 234 226 223 220 219 217 215 219 212 200 193 194 202 220 223 215 208 223 221 221 220 220 221 229 249 244 248 241 250 251 226 220 228 250 260 270 241 227 275 260
235 236 225 230 229 225 229 231 224 219 219 215 215 209 214 207 197 204 205 217 224 224 220 213 219 222 225 215 221 227 237 244 248 244 235 237 242 243 221 248 264 257 255 250 258 242 225
230 231 227 227 229 230 227 224 227 214 215 211 210 209 214 197 199 205 210 212 214 226 226 224 222 213 207 204 213 227 238 239 242 245 258 245 241 248 254 260 265 268 266 260 235 256 260
227 228 229 228 228 229 228 225 226 223 213 205 205 213 212 204 196 206 210 214 220 228 229 228 230 218 228 240 239 245 246 245 247 251 257 252 236 247 261 257 248 254 262 262 262 264 266
229 223 225 224 221 224 224 222 223 224 216 200 200 206 210 207 208 208 217 221 223 227 229 230 233 234 240 246 256 255 256 255 253 249 246 244 242 247 240 250 268 255 265 266 266 264 273
232 226 228 231 226 227 223 216 219 213 219 205 202 206 212 200 205 210 215 221 223 224 233 236 234 232 239 238 244 250 261 264 267 261 253 239 245 254 254 266 275 272 273 274 273 280 256
229 229 227 227 231 236 231 224 223 205 210 215 206 205 207 212 216 210 212 221 223 226 228 233 228 238 244 242 245 255 263 271 270 264 253 241 248 258 274 278 275 279 281 285 287 280 273
229 226 224 224 225 229 226 227 221 213 200 208 207 207 207 216 212 212 219 221 224 226 235 238 239 240 239 245 250 252 260 264 262 255 252 256 253 268 267 277 284 284 290 293 286 285 288
226 222 220 220 223 226 225 222 218 217 205 207 205 208 206 214 217 219 221 226 225 231 231 235 243 235 243 246 253 258 265 257 246 249 251 254 256 236 264 281 261 281 287 284 280 293 295
221 219 218 218 216 219 222 220 215 208 200 201 210 211 209 214 222 224 226 228 230 230 233 236 229 230 234 251 262 265 248 256 235 234 243 240 238 243 255 258 273 284 286 286 286 282 303
220 218 216 216 214 216 218 222 210 201 197 202 207 209 209 213 218 223 227 227 231 231 236 241 233 222 218 249 251 239 212 200 201 222 219 224 232 233 227 235 249 285 282 293 297 304 303
217 214 213 213 210 210 213 220 205 199 194 197 203 207 211 216 222 216 220 223 229 234 241 244 239 243 233 234 231 229 221 213 207 203 210 217 226 228 237 242 265 281 283 277 275 281 297
215 211 209 208 206 205 210 214 202 196 195 194 198 207 210 214 202 210 227 236 236 234 239 242 219 226 220 223 224 229 225 220 230 234 234 233 231 229 229 233 263 271 286 264 285 285 290
217 212 207 204 201 202 202 201 200 201 201 208 210 210 214 215 219 211 203 215 210 222 243 231 228 231 225 212 220 221 233 230 237 239 247 241 244 243 228 259 266 278 289 288 284 288 290
Height
3091 3093 3095 3098 3101 3103 3106 3109 3112 3114 3116 3118 3120 3121 3124 3125 3125 3126 3126 3125 3125 3125 3126 3127 3127 3127 3128 3127 3128 3126 3125 3126 3125 3125 3124 3124 3125 3124 3124 3124 3123 3123 3125 3126 3127 3128 3127
3082 3085 3087 3089 3092 3095 3098 3101 3103 3106 3109 3111 3113 3116 3117 3118 3119 3120 3120 3119 3120 3120 3121 3121 3121 3122 3122 3123 3124 3122 3122 3122 3122 3122 3123 3123 3123 3122 3122 3122 3121 3121 3122 3124 3125 3125 3123
3072 3075 3076 3081 3083 3087 3089 3093 3096 3098 3101 3104 3107 3109 3110 3112 3113 3113 3114 3113 3113 3115 3117 3116 3116 3115 3117 3120 3119 3119 3119 3119 3119 3119 3120 3121 3122 3121 3120 3119 3117 3117 3119 3120 3121 3120 3120
3062 3065 3068 3071 3074 3077 3080 3083 3086 3089 3093 3097 3099 3102 3103 3105 3108 3108 3107 3107 3107 3110 3111 3112 3112 3111 3111 3114 3114 3116 3116 3116 3115 3116 3117 3117 3118 3118 3117 3116 3115 3114 3115 3116 3118 3118 3118
3048 3054 3057 3061 3064 3068 3070 3074 3077 3082 3085 3088 3091 3094 3096 3099 3102 3103 3103 3102 3104 3104 3107 3107 3108 3107 3108 3109 3108 3110 3112 3112 3112 3113 3113 3114 3115 3114 3113 3112 3113 3109 3110 3111 3114 3113 3114
3040 3043 3047 3051 3055 3058 3060 3063 3066 3071 3075 3079 3083 3086 3089 3091 3095 3097 3098 3098 3098 3100 3103 3103 3104 3106 3105 3106 3105 3105 3107 3109 3110 3109 3109 3109 3110 3111 3108 3110 3109 3107 3106 3107 3110 3112 3109
3030 3033 3037 3040 3044 3048 3051 3054 3057 3060 3066 3070 3074 3078 3082 3085 3087 3091 3092 3093 3096 3097 3095 3100 3098 3097 3099 3100 3100 3101 3103 3105 3104 3106 3104 3104 3105 3106 3107 3106 3105 3104 3103 3103 3106 3109 3104
3019 3023 3027 3031 3034 3037 3041 3045 3050 3053 3057 3061 3066 3068 3074 3077 3078 3081 3083 3085 3089 3089 3084 3087 3086 3087 3091 3094 3096 3098 3099 3101 3099 3100 3100 3100 3099 3103 3102 3101 3102 3102 3100 3100 3101 3104 3102
3008 3013 3016 3021 3025 3029 3033 3037 3041 3045 3050 3054 3057 3061 3065 3068 3070 3072 3075 3081 3082 3081 3078 3077 3079 3079 3084 3086 3085 3090 3092 3092 3093 3094 3094 3094 3099 3098 3098 3097 3099 3098 3098 3099 3099 3098 3099
2997 3002 3005 3010 3015 3021 3025 3029 3033 3038 3041 3046 3050 3053 3056 3061 3063 3067 3069 3074 3077 3080 3078 3068 3072 3068 3074 3076 3074 3082 3083 3088 3086 3087 3090 3089 3091 3092 3094 3095 3097 3096 3098 3097 3096 3095 3095
2987 2990 2995 2999 3004 3012 3016 3021 3024 3030 3033 3038 3043 3045 3050 3053 3055 3064 3070 3068 3074 3080 3081 3066 3064 3064 3066 3071 3069 3073 3074 3076 3078 3082 3086 3087 3087 3088 3090 3092 3093 3095 3096 3096 3094 3093 3091
2976 2981 2984 2989 2993 3001 3007 3013 3017 3021 3027 3032 3035 3039 3042 3046 3050 3057 3061 3064 3070 3080 3067 3060 3059 3061 3062 3064 3066 3068 3070 3071 3076 3079 3080 3081 3083 3086 3088 3089 3091 3093 3094 3094 3093 3092 3087
2967 2971 2975 2979 2983 2989 2996 3003 3008 3014 3020 3024 3029 3033 3037 3039 3046 3051 3055 3061 3069 3065 3059 3059 3057 3060 3061 3062 3064 3065 3066 3069 3073 3076 3077 3078 3077 3079 3083 3085 3087 3088 3090 3091 3091 3089 3084
2957 2961 2966 2970 2974 2979 2984 2991 2999 3005 3012 3018 3022 3027 3031 3036 3040 3044 3051 3056 3056 3048 3052 3055 3055 3057 3059 3060 3062 3065 3066 3067 3070 3072 3074 3076 3075 3074 3077 3080 3082 3082 3084 3086 3085 3085 3080
2945 2951 2956 2961 2966 2971 2975 2982 2988 2994 3002 3009 3015 3020 3025 3030 3035 3040 3046 3047 3043 3044 3047 3052 3054 3054 3056 3058 3062 3063 3064 3065 3066 3069 3073 3072 3073 3073 3073 3076 3080 3080 3080 3081 3080 3078 3077
2931 2938 2945 2951 2957 2962 2967 2972 2979 2985 2992 2999 3004 3010 3017 3025 3030 3033 3037 3038 3037 3041 3045 3047 3049 3052 3052 3054 3058 3061 3062 3063 3064 3064 3067 3068 3071 3072 3072 3074 3075 3076 3076 3077 3078 3078 3074
2916 2924 2932 2939 2946 2953 2959 2964 2969 2976 2984 2990 2997 3001 3008 3016 3023 3023 3027 3030 3032 3036 3042 3046 3046 3048 3049 3051 3054 3057 3059 3062 3064 3062 3063 3064 3068 3069 3070 3070 3070 3072 3070 3071 3073 3072 3070
2902 2912 2919 2927 2935 2942 2950 2956 2962 2967 2975 2982 2987 2992 2998 3006 3012 3013 3019 3023 3027 3030 3035 3040 3043 3044 3047 3049 3050 3053 3055 3059 3059 3061 3062 3062 3062 3062 3065 3065 3065 3067 3066 3067 3067 3066 3063
2890 2899 2908 2916 2924 2932 2939 2948 2953 2960 2964 2973 2980 2984 2989 2998 2998 3004 3009 3013 3021 3024 3028 3034 3038 3042 3044 3046 3050 3050 3049 3052 3056 3058 3058 3060 3059 3059 3060 3063 3060 3059 3059 3060 3061 3061 3053
2878 2886 2896 2905 2913 2922 2930 2939 2945 2952 2958 2967 2974 2978 2982 2986 2993 2998 3003 3006 3012 3018 3022 3028 3031 3037 3040 3042 3046 3046 3047 3049 3050 3052 3054 3054 3055 3056 3054 3055 3055 3054 3053 3055 3057 3055 3048
2869 2877 2886 2894 2903 2912 2921 2928 2935 2942 2950 2959 2963 2964 2970 2973 2982 2988 2994 3000 3005 3011 3017 3021 3025 3029 3035 3039 3041 3042 3043 3045 3047 3048 3050 3050 3049 3051 3051 3050 3051 3048 3047 3049 3048 3042 3043
2859 2868 2876 2885 2895 2904 2912 2917 2925 2933 2940 2946 2952 2958 2963 2971 2976 2983 2988 2991 2998 3006 3011 3013 3020 3025 3030 3033 3036 3038 3040 3042 3043 3044 3045 3046 3045 3045 3045 3047 3045 3041 3039 3040 3035 3032 3027
2848 2857 2865 2875 2885 2894 2901 2909 2916 2924 2927 2931 2943 2952 2958 2964 2969 2976 2979 2984 2991 3000 3004 3010 3015 3020 3024 3029 3032 3034 3035 3036 3037 3040 3041 3042 3040 3040 3039 3042 3040 3033 3031 3029 3026 3024 3022
2835 2844 2854 2863 2873 2883 2890 2898 2907 2912 2919 2929 2935 2944 2953 2957 2964 2966 2977 2983 2988 2994 3000 3005 3011 3016 3021 3025 3027 3027 3028 3029 3032 3033 3035 3035 3036 3038 3036 3037 3035 3025 3024 3023 3020 3018 3017
2824 2833 2842 2852 2862 2872 2880 2888 2897 2905 2912 2923 2933 2940 2947 2953 2960 2966 2973 2978 2986 2992 2996 2999 3005 3012 3018 3020 3022 3022 3022 3024 3025 3027 3029 3030 3033 3034 3033 3032 3025 3021 3019 3017 3013 3012 3013
2813 2822 2831 2842 2852 2861 2870 2878 2891 2898 2906 2917 2929 2937 2943 2950 2954 2964 2968 2973 2978 2985 2992 2993 3001 3008 3012 3014 3016 3017 3017 3017 3020 3021 3022 3025 3027 3030 3028 3029 3024 3017 3014 3012 3011 3009 3009
2804 2813 2823 2833 2843 2852 2862 2872 2884 2893 2902 2913 2923 2931 2938 2946 2952 2958 2962 2966 2975 2980 2983 2988 2995 3003 3007 3007 3010 3013 3012 3014 3014 3014 3016 3019 3021 3021 3022 3022 3014 3010 3009 3008 3010 3010 3006
2794 2805 2815 2825 2835 2846 2856 2867 2879 2889 2899 2908 2918 2927 2936 2941 2946 2953 2958 2963 2968 2974 2978 2984 2993 2993 2998 3002 3005 3005 3006 3007 3009 3008 3009 3012 3014 3014 3017 3018 3011 3005 3005 3006 3005 3003 3003
2783 2796 2807 2819 2830 2841 2853 2863 2875 2886 2896 2904 2914 2924 2932 2938 2942 2946 2951 2957 2963 2970 2976 2979 2983 2986 2990 2995 2997 3000 3001 3001 3003 3003 3004 3006 3006 3007 3006 3002 3002 3001 3001 3002 3002 3001 3000